Cecil Field, FL

5:21 AM EST on November 19, 2017 (GMT -0500)
Cecil

Weather History for KVQQ - January, 2013

Change the Weather History Date:

Thursday, January 24, 2013

  Actual Average (KNIP) Record (KNIP)
Temperature  
Mean Temperature 53 °F -  
Max Temperature 71 °F 63 °F 72 °F (2017)
Min Temperature 35 °F 45 °F 30 °F (2016)
Degree Days  
Heating Degree Days 12    
Growing Degree Days 3 (Base 50)    
Moisture  
Dew Point 43 °F    
Average Humidity 82    
Maximum Humidity 100    
Minimum Humidity 41    
Precipitation  
Precipitation 0.00 in - - ()
Sea Level Pressure  
Sea Level Pressure 30.27 in    
Wind  
Wind Speed 3 mph (West)    
Max Wind Speed 17 mph    
Max Gust Speed -    
Visibility 8 miles    
Events      
Averages and records for this station are not official NWS values.
T = Trace of Precipitation, MM = Missing Value Source: NWS Daily Summary

Daily Weather History Graph

Daily Weather History Graph

Search for Another Location

Airport or City:

Trip Planner

Search our weather history database for the weather conditions in past years. The results will help you decide how hot, cold, wet, or windy it might be!

Date:

Astronomy

Jan. 24, 2013 Rise Set
Actual Time 7:22 AM EST 5:57 PM EST
Civil Twilight 6:56 AM EST 6:23 PM EST
Nautical Twilight 6:27 AM EST 6:52 PM EST
Astronomical Twilight 5:58 AM EST 7:20 PM EST
Moon 4:00 PM EST (1/24) 5:16 AM EST (1/24)
Length of Visible Light 11h 26m
Length of Day
10h 35m
Waxing Gibbous, 94% of the Moon is Illuminated
Jan 24
Waxing Gibbous
Jan 26
Full
Feb 3
Last Quarter
Feb 10
New
Feb 17
First Quarter

Hourly Weather History & Observations

Time (EST) Temp. Windchill Dew Point Humidity Pressure Visibility Wind Dir Wind Speed Gust Speed Precip Events Conditions
12:15 AM 35.6 °F - 35.6 °F 100% 30.29 in 5.0 mi Calm Calm - N/A   Clear
12:35 AM 35.6 °F - 35.6 °F 100% 30.28 in 5.0 mi Calm Calm - N/A   Clear
12:55 AM 35.6 °F - 35.6 °F 100% 30.29 in 7.0 mi Calm Calm - N/A   Clear
1:15 AM 35.6 °F - 35.6 °F 100% 30.29 in 6.0 mi Calm Calm - N/A   Clear
1:35 AM 37.4 °F - 35.6 °F 93% 30.28 in 8.0 mi Calm Calm - N/A   Clear
1:55 AM 35.6 °F - 35.6 °F 100% 30.29 in 8.0 mi Calm Calm - N/A   Clear
2:15 AM 35.6 °F - 35.6 °F 100% 30.29 in 9.0 mi Calm Calm - N/A   Clear
2:35 AM 37.4 °F - 35.6 °F 93% 30.29 in 6.0 mi Calm Calm - N/A   Clear
2:55 AM 37.4 °F 34.9 °F 35.6 °F 93% 30.29 in 8.0 mi WSW 3.5 mph - N/A   Clear
3:15 AM 37.4 °F - 35.6 °F 93% 30.29 in 7.0 mi Calm Calm - N/A   Clear
3:35 AM 37.4 °F 33.8 °F 37.4 °F 100% 30.28 in 7.0 mi SSW 4.6 mph - N/A   Clear
3:55 AM 39.2 °F - 37.4 °F 93% 30.27 in 5.0 mi Calm Calm - N/A   Clear
4:15 AM 39.2 °F 37.0 °F 37.4 °F 93% 30.27 in 9.0 mi SW 3.5 mph - N/A   Clear
4:35 AM 44.6 °F - 41.0 °F 87% 30.26 in 10.0 mi Calm Calm - N/A   Clear
4:55 AM 42.8 °F - 39.2 °F 87% 30.27 in 9.0 mi Calm Calm - N/A   Clear
5:15 AM 39.2 °F 37.0 °F 39.2 °F 100% 30.27 in 10.0 mi SW 3.5 mph - N/A   Clear
5:35 AM 41.0 °F 39.0 °F 39.2 °F 93% 30.26 in 6.0 mi SSW 3.5 mph - N/A   Clear
5:55 AM 42.8 °F 39.3 °F 41.0 °F 93% 30.27 in 6.0 mi SSW 5.8 mph - N/A   Clear
6:15 AM 41.0 °F - 39.2 °F 93% 30.27 in 10.0 mi Calm Calm - N/A   Clear
6:35 AM 42.8 °F - 41.0 °F 93% 30.28 in 10.0 mi Calm Calm - N/A   Clear
6:50 AM 41.0 °F - 39.2 °F 93% 30.28 in 10.0 mi Calm Calm - N/A   Clear
8:50 AM 50.0 °F - 46.4 °F 87% 30.29 in 10.0 mi West 5.8 mph - N/A   Clear
9:50 AM 60.8 °F - 48.2 °F 63% 30.32 in 10.0 mi West 9.2 mph - N/A   Clear
10:50 AM 64.4 °F - 50.0 °F 59% 30.32 in 10.0 mi West 17.3 mph - N/A   Clear
11:50 AM 68.0 °F - 50.0 °F 52% 30.28 in 10.0 mi West 13.8 mph - N/A   Clear
12:50 PM 71.6 °F - 50.0 °F 46% 30.25 in 10.0 mi West 13.8 mph - N/A   Clear
1:50 PM 71.6 °F - 48.2 °F 43% 30.25 in 10.0 mi West 11.5 mph - N/A   Scattered Clouds
2:50 PM 71.6 °F - 48.2 °F 43% 30.22 in 10.0 mi West 15.0 mph - N/A   Clear
3:50 PM 71.6 °F - 46.4 °F 41% 30.21 in 10.0 mi West 17.3 mph - N/A   Clear
4:50 PM 71.6 °F - 46.4 °F 41% 30.22 in 10.0 mi West 11.5 mph - N/A   Scattered Clouds
5:50 PM 66.2 °F - 46.4 °F 49% 30.23 in 10.0 mi West 5.8 mph - N/A   Partly Cloudy
6:50 PM 57.2 °F - 48.2 °F 72% 30.24 in 10.0 mi Calm Calm - N/A   Partly Cloudy
7:50 PM 53.6 °F - 46.4 °F 77% 30.25 in 10.0 mi Calm Calm - N/A   Partly Cloudy
8:15 PM 50.0 °F - 46.4 °F 87% 30.27 in 8.0 mi Calm Calm - N/A   Partly Cloudy
8:35 PM 50.0 °F - 46.4 °F 87% 30.27 in 8.0 mi Calm Calm - N/A   Scattered Clouds
8:55 PM 50.0 °F - 46.4 °F 87% 30.27 in 7.0 mi Calm Calm - N/A   Mostly Cloudy
9:15 PM 51.8 °F - 46.4 °F 82% 30.27 in 8.0 mi Calm Calm - N/A   Mostly Cloudy
9:35 PM 51.8 °F - 48.2 °F 88% 30.27 in 7.0 mi Calm Calm - N/A   Partly Cloudy
9:55 PM 50.0 °F - 48.2 °F 94% 30.29 in 6.0 mi Calm Calm - N/A   Partly Cloudy
10:15 PM 50.0 °F - 48.2 °F 94% 30.29 in 5.0 mi Calm Calm - N/A   Partly Cloudy
10:35 PM 50.0 °F - 48.2 °F 94% 30.29 in 5.0 mi Calm Calm - N/A   Scattered Clouds
10:55 PM 50.0 °F - 46.4 °F 87% 30.29 in 7.0 mi SSW 3.5 mph - N/A   Partly Cloudy
11:15 PM 51.8 °F - 48.2 °F 88% 30.30 in 10.0 mi North 5.8 mph - N/A   Clear
11:35 PM 55.4 °F - 48.2 °F 77% 30.30 in 10.0 mi North 11.5 mph - N/A   Clear
11:55 PM 57.2 °F - 48.2 °F 72% 30.30 in 10.0 mi NNE 9.2 mph - N/A   Clear